Lexington, NC

5:52 PM EDT on July 24, 2017 (GMT -0400)
Davidson County

Weather History for KEXX - July, 2013

Change the Weather History Date:

Thursday, July 11, 2013

  Actual Average (KINT) Record (KINT)
Temperature  
Mean Temperature 72 °F -  
Max Temperature 77 °F 84 °F 98 °F (1988)
Min Temperature 68 °F 67 °F 58 °F (1972)
Cooling Degree Days 8    
Growing Degree Days 22 (Base 50)    
Moisture  
Dew Point 73 °F    
Average Humidity 99    
Maximum Humidity 100    
Minimum Humidity 89    
Precipitation  
Precipitation 0.10 in - - ()
Sea Level Pressure  
Sea Level Pressure 29.95 in    
Wind  
Wind Speed 1 mph (SSW)    
Max Wind Speed 6 mph    
Max Gust Speed -    
Visibility 8 miles    
Events Rain    
Averages and records for this station are not official NWS values.
T = Trace of Precipitation, MM = Missing Value Source: NWS Daily Summary

Daily Weather History Graph

Daily Weather History Graph

Search for Another Location

Airport or City:

Trip Planner

Search our weather history database for the weather conditions in past years. The results will help you decide how hot, cold, wet, or windy it might be!

Date:

Astronomy

Jul. 11, 2013 Rise Set
Actual Time 6:14 AM EDT 8:39 PM EDT
Civil Twilight 5:44 AM EDT 9:08 PM EDT
Nautical Twilight 5:08 AM EDT 9:44 PM EDT
Astronomical Twilight 4:28 AM EDT 10:24 PM EDT
Moon 9:23 AM EDT (7/11) 10:27 PM EDT (7/11)
Length of Visible Light 15h 23m
Length of Day
14h 24m
Waxing Crescent, 10% of the Moon is Illuminated
Jul 11
Waxing Crescent
Jul 15
First Quarter
Jul 22
Full
Jul 29
Last Quarter
Aug 6
New

Hourly Weather History & Observations

Time (EDT) Temp. Dew Point Humidity Pressure Visibility Wind Dir Wind Speed Gust Speed Precip Events Conditions
12:15 AM 72.1 °F 72.1 °F 100% 29.98 in 4.0 mi Calm Calm - N/A Rain Rain
12:35 AM 71.8 °F 71.8 °F 100% 29.97 in 5.0 mi Calm Calm - 0.01 in   Clear
12:55 AM 71.6 °F 71.6 °F 100% 29.96 in 7.0 mi Calm Calm - 0.01 in   Clear
1:15 AM 71.6 °F 71.6 °F 100% 29.96 in 7.0 mi Calm Calm - N/A   Clear
1:35 AM 71.8 °F 71.8 °F 100% 29.96 in 7.0 mi Calm Calm - N/A   Clear
1:55 AM 71.8 °F 71.8 °F 100% 29.95 in 5.0 mi Calm Calm - N/A   Clear
2:15 AM 71.8 °F 71.8 °F 100% 29.96 in 4.0 mi Calm Calm - N/A   Scattered Clouds
2:35 AM 71.8 °F 71.8 °F 100% 29.95 in 5.0 mi Calm Calm - N/A   Scattered Clouds
2:55 AM 71.6 °F 71.6 °F 100% 29.95 in 7.0 mi Calm Calm - N/A   Clear
3:15 AM 71.1 °F 71.1 °F 100% 29.96 in 7.0 mi Calm Calm - N/A   Clear
3:35 AM 70.9 °F 70.9 °F 100% 29.96 in 7.0 mi SSW 3.5 mph - N/A   Scattered Clouds
3:55 AM 71.1 °F 71.1 °F 100% 29.97 in 7.0 mi Calm Calm - N/A   Mostly Cloudy
4:15 AM 71.1 °F 71.1 °F 100% 29.97 in 7.0 mi Calm Calm - N/A   Overcast
4:35 AM 70.7 °F 70.7 °F 100% 29.97 in 7.0 mi Calm Calm - N/A   Scattered Clouds
4:55 AM 70.7 °F 70.7 °F 100% 29.97 in 7.0 mi SSW 3.5 mph - N/A   Scattered Clouds
5:15 AM 70.7 °F 70.7 °F 100% 29.97 in 7.0 mi Calm Calm - N/A   Mostly Cloudy
5:35 AM 71.1 °F 71.1 °F 100% 29.97 in 7.0 mi SW 3.5 mph - N/A   Mostly Cloudy
5:55 AM 71.1 °F 71.1 °F 100% 29.97 in 7.0 mi Calm Calm - N/A   Mostly Cloudy
6:15 AM 70.9 °F 70.9 °F 100% 29.97 in 7.0 mi Calm Calm - N/A   Scattered Clouds
6:35 AM 70.7 °F 70.7 °F 100% 29.98 in 5.0 mi SSW 3.5 mph - N/A   Scattered Clouds
6:55 AM 70.9 °F 70.9 °F 100% 29.98 in 5.0 mi Calm Calm - N/A   Scattered Clouds
7:15 AM 71.8 °F 71.8 °F 100% 29.99 in 5.0 mi Calm Calm - N/A   Clear
7:35 AM 71.8 °F 71.8 °F 100% 29.99 in 7.0 mi South 3.5 mph - N/A   Scattered Clouds
7:55 AM 71.8 °F 71.8 °F 100% 29.99 in 7.0 mi SSW 3.5 mph - N/A   Scattered Clouds
8:15 AM 72.0 °F 72.0 °F 100% 29.99 in 7.0 mi SSW 3.5 mph - N/A   Scattered Clouds
8:35 AM 72.3 °F 72.3 °F 100% 29.98 in 7.0 mi SSW 4.6 mph - N/A   Mostly Cloudy
8:55 AM 72.7 °F 72.7 °F 100% 29.98 in 7.0 mi SSW 4.6 mph - N/A Rain Light Rain
9:15 AM 72.5 °F 72.5 °F 100% 29.99 in 7.0 mi Calm Calm - N/A   Mostly Cloudy
9:35 AM 73.0 °F 73.0 °F 100% 29.99 in 7.0 mi Calm Calm - N/A   Overcast
9:55 AM 72.9 °F 72.9 °F 100% 29.99 in 7.0 mi Calm Calm - N/A Rain Rain
10:15 AM 73.4 °F 73.4 °F 100% 29.99 in 4.0 mi Calm Calm - 0.01 in Rain Rain
10:35 AM 73.0 °F 73.0 °F 100% 29.99 in 5.0 mi Calm Calm - 0.04 in Rain Rain
10:55 AM 73.4 °F 73.4 °F 100% 29.99 in 7.0 mi Calm Calm - 0.04 in   Mostly Cloudy
11:15 AM 74.3 °F 74.3 °F 100% 29.99 in 7.0 mi Calm Calm - N/A   Mostly Cloudy
11:35 AM 74.1 °F 74.1 °F 100% 29.99 in 7.0 mi Calm Calm - N/A   Mostly Cloudy
11:55 AM 74.1 °F 74.1 °F 100% 29.99 in 10.0 mi Calm Calm - N/A   Mostly Cloudy
12:15 PM 74.5 °F 74.5 °F 100% 29.99 in 10.0 mi Calm Calm - N/A   Mostly Cloudy
12:35 PM 74.8 °F 74.8 °F 100% 29.98 in 10.0 mi Calm Calm - N/A   Overcast
12:55 PM 76.1 °F 75.2 °F 97% 29.98 in 10.0 mi West 4.6 mph - N/A   Mostly Cloudy
1:15 PM 76.3 °F 75.4 °F 97% 29.97 in 10.0 mi Calm Calm - N/A   Mostly Cloudy
1:35 PM 76.3 °F 75.9 °F 99% 29.96 in 10.0 mi SSE 3.5 mph - N/A   Mostly Cloudy
1:55 PM 75.6 °F 75.6 °F 100% 29.95 in 10.0 mi SSE 3.5 mph - N/A   Mostly Cloudy
2:15 PM 75.7 °F 75.7 °F 100% 29.95 in 10.0 mi South 3.5 mph - N/A   Scattered Clouds
2:35 PM 75.4 °F 75.4 °F 100% 29.94 in 10.0 mi South 4.6 mph - N/A Rain Light Rain
2:55 PM 75.4 °F 75.4 °F 100% 29.94 in 10.0 mi South 3.5 mph - N/A   Mostly Cloudy
3:15 PM 77.0 °F 74.7 °F 92% 29.93 in 10.0 mi South 4.6 mph - N/A   Scattered Clouds
3:35 PM 76.8 °F 73.6 °F 90% 29.92 in 10.0 mi Calm Calm - N/A   Scattered Clouds
3:55 PM 76.1 °F 76.1 °F 100% 29.93 in 10.0 mi Calm Calm - N/A   Mostly Cloudy
4:15 PM 76.3 °F 76.3 °F 100% 29.92 in 10.0 mi South 4.6 mph - N/A   Scattered Clouds
4:35 PM 77.2 °F 75.6 °F 95% 29.91 in 10.0 mi South 4.6 mph - N/A   Light Drizzle
4:55 PM 77.5 °F 75.9 °F 95% 29.91 in 10.0 mi Calm Calm - N/A   Mostly Cloudy
5:15 PM 77.4 °F 74.7 °F 91% 29.91 in 10.0 mi Calm Calm - N/A   Scattered Clouds
5:35 PM 77.0 °F 76.3 °F 98% 29.91 in 10.0 mi SSE 4.6 mph - N/A   Scattered Clouds
5:55 PM 77.2 °F 76.1 °F 96% 29.90 in 10.0 mi SE 3.5 mph - N/A   Scattered Clouds
6:15 PM 77.2 °F 74.8 °F 92% 29.91 in 10.0 mi SSE 4.6 mph - N/A   Clear
6:35 PM 77.0 °F 73.4 °F 89% 29.91 in 10.0 mi South 3.5 mph - N/A   Scattered Clouds
6:55 PM 76.3 °F 72.7 °F 89% 29.91 in 10.0 mi South 3.5 mph - N/A   Mostly Cloudy
7:15 PM 76.1 °F 75.2 °F 97% 29.91 in 10.0 mi Calm Calm - N/A   Scattered Clouds
7:35 PM 75.7 °F 75.7 °F 100% 29.91 in 10.0 mi Calm Calm - N/A   Scattered Clouds
7:55 PM 75.2 °F 75.2 °F 100% 29.91 in 7.0 mi Calm Calm - N/A   Scattered Clouds
8:15 PM 74.7 °F 74.7 °F 100% 29.91 in 10.0 mi South 3.5 mph - N/A   Scattered Clouds
8:35 PM 74.5 °F 74.5 °F 100% 29.91 in 10.0 mi SSW 3.5 mph - N/A   Scattered Clouds
8:55 PM 74.3 °F 74.3 °F 100% 29.92 in 10.0 mi Calm Calm - N/A   Scattered Clouds
9:15 PM 73.8 °F 73.8 °F 100% 29.93 in 10.0 mi SSW 3.5 mph - N/A   Mostly Cloudy
9:35 PM 73.6 °F 73.6 °F 100% 29.93 in 7.0 mi West 4.6 mph - 0.01 in Rain Rain
9:55 PM 70.5 °F 70.5 °F 100% 29.91 in 7.0 mi South 4.6 mph - 0.04 in Rain Light Rain
10:15 PM 72.5 °F 72.5 °F 100% 29.91 in 7.0 mi SSW 5.8 mph - N/A Rain Light Rain
10:35 PM 72.5 °F 72.5 °F 100% 29.91 in 10.0 mi WSW 3.5 mph - 0.01 in Rain Rain
10:55 PM 69.8 °F 69.8 °F 100% 29.91 in 7.0 mi Calm Calm - 0.01 in Rain Rain
11:15 PM 68.4 °F 68.4 °F 100% 29.92 in 10.0 mi Calm Calm - N/A   Overcast
11:35 PM 68.2 °F 68.2 °F 100% 29.93 in 7.0 mi Calm Calm - N/A   Mostly Cloudy
11:55 PM 68.0 °F 68.0 °F 100% 29.93 in 10.0 mi Calm Calm - N/A   Mostly Cloudy